Location: Prague
(50.0830°N, 14.4670°E)
Time: 13:03:58
(UTC+02:00)

PCSat - Visible Passes

Search period start: 27 March 2023 00:00
Search period end: 06 April 2023 00:00
Orbit: 784 x 794 km, 67.1° (Epoch: 26 March)

Date Brightness Start Highest point End Pass type
(mag) Time Alt. Az. Time Alt. Az. Time Alt. Az.
27 Mar 11.4 00:49:41 10° NNW 00:52:41 28° N 00:52:41 28° N visible
27 Mar 12.1 02:33:03 10° NW 02:33:22 12° NW 02:33:22 12° NW visible
27 Mar 12.1 20:49:21 10° NW 20:52:25 15° NNW 20:55:29 10° NNE visible
27 Mar 12.0 22:35:13 10° NNW 22:38:08 14° NNE 22:41:03 10° NE visible
28 Mar 11.3 00:18:27 10° NNW 00:22:04 28° NNE 00:22:04 28° NNE visible
28 Mar 11.9 02:01:41 10° NW 02:02:44 16° NW 02:02:44 16° NW visible
28 Mar 12.0 20:17:23 10° WNW 20:20:46 16° NNW 20:24:09 10° NNE visible
28 Mar 12.1 22:03:47 10° NNW 22:06:27 14° N 22:09:07 10° NE visible
28 Mar 11.3 23:47:13 10° NNW 23:51:28 26° NNE 23:51:28 26° NNE visible
29 Mar 11.6 01:30:21 10° NW 01:32:08 21° NW 01:32:08 21° NW visible
29 Mar 12.1 21:32:14 10° NNW 21:34:46 13° N 21:37:17 10° NNE visible
29 Mar 11.4 23:15:59 10° NNW 23:20:13 22° NNE 23:20:52 22° NE visible
30 Mar 11.3 00:59:03 10° NW 01:01:32 28° NNW 01:01:32 28° NNW visible
30 Mar 12.0 21:00:34 10° NNW 21:03:04 13° N 21:05:33 10° NNE visible
30 Mar 11.5 22:44:44 10° NNW 22:48:38 20° NNE 22:50:17 17° NE visible
31 Mar 11.0 00:27:46 10° NNW 00:30:58 34° NNW 00:30:58 34° NNW visible
31 Mar 12.2 02:11:37 10° NW 02:11:38 10° NW 02:11:38 10° NW visible
31 Mar 12.0 20:28:47 10° NW 20:31:22 13° N 20:33:57 10° NNE visible
31 Mar 11.7 22:13:27 10° NNW 22:17:01 17° NNE 22:19:44 13° NE visible
31 Mar 10.8 23:56:30 10° NNW 00:00:24 38° N 00:00:24 38° N visible
01 Apr 11.9 01:40:05 10° NW 01:41:05 15° NW 01:41:05 15° NW visible
01 Apr 11.9 21:42:09 10° NNW 21:45:23 16° NNE 21:48:36 10° NE visible
01 Apr 10.7 23:25:15 10° NNW 23:29:51 37° NNE 23:29:51 37° NNE visible
02 Apr 11.5 01:08:38 10° NW 01:10:32 22° NW 01:10:32 22° NW visible
02 Apr 11.9 21:10:47 10° NNW 21:13:42 14° NNE 21:16:38 10° NE visible
02 Apr 10.8 22:54:01 10° NNW 22:58:51 31° NE 22:59:19 31° NE visible
03 Apr 11.1 00:37:14 10° NW 00:39:59 30° NW 00:39:59 30° NW visible
03 Apr 11.9 20:39:20 10° NNW 20:42:01 14° N 20:44:42 10° NE visible
03 Apr 11.0 22:22:47 10° NNW 22:27:20 26° NNE 22:28:47 23° ENE visible
04 Apr 10.6 00:05:54 10° NW 00:09:28 42° NW 00:09:28 42° NW visible
04 Apr 11.9 20:07:48 10° NNW 20:10:19 13° N 20:12:50 10° NNE visible
04 Apr 11.3 21:51:32 10° NNW 21:55:46 22° NNE 21:58:17 17° ENE visible
04 Apr 10.1 23:34:35 10° NW 23:38:58 56° NNW 23:38:58 56° NNW visible
05 Apr 12.0 01:18:50 10° WNW 01:19:39 13° WNW 01:19:39 13° WNW visible
05 Apr 11.5 21:20:16 10° NNW 21:24:11 20° NNE 21:27:48 11° ENE visible
05 Apr 9.9 23:03:18 10° NNW 23:08:29 58° NE 23:08:29 58° NE visible
